Tracking 29892 objects as of 21-Nov-2024
HD Live streaming from Space Station
objects crossing your sky now

CZ-3C DEB

Track CZ-3C DEB now!


NORAD ID: 42470
Int'l Code: 2010-057BK
Perigee: 414.7 km
Apogee: 28,950.4 km
Inclination: 20.8 °
Period: 506.7 minutes
Semi major axis: 21053 km
RCS: Unknown
Launch date: October 31, 2010
Source: People's Republic of China (PRC)
Launch site: Xichang Space Center, China (XSC)

Note: This is SATELLITE DEBRIS
Your satellite tracking list
Your tracking list is empty




NASA's NSSDC Master Catalog

Two Line Element Set (TLE):
1 42470U 10057BK  24308.84577434  .00015442  00000-0  29645-1 0  9992
2 42470  20.8469 201.2865 6776932 229.9083  47.9121  2.84193663104859
Source of the keplerian elements: AFSPC